Simultaneous Nadir Overpasses (SNOs) Predictions

Prediction of SNOs between NOAA-19 and METOP-C Satellite Orbit:

Table of predicted SNOs for the next 14.0 days since TLE Epoch: 12/9/2023
Index Date (NOAA-19) Time (NOAA-19) Lat,Lon (NOAA-19) SZA (NOAA-19 ) Date (METOP-C) Time (METOP-C) Lat,Lon (METOP-C) SZA (METOP-C ) Distance(km) Time Diff (sec)
1 12/09/2023 06:22:04 80.76, 116.27 104.99 12/09/2023 06:23:01 80.76, 116.13 105.00 2.52 57
2 12/09/2023 07:13:02 -80.76, -76.58 75.03 12/09/2023 07:13:42 -80.76, -76.57 75.01 0.19 40
3 12/09/2023 08:04:02 80.77, 90.98 105.02 12/09/2023 08:04:22 80.77, 90.99 105.03 0.36 20
4 12/09/2023 08:55:00 -80.77,-101.87 75.00 12/09/2023 08:55:03 -80.77,-101.71 74.98 2.79 3
5 12/09/2023 09:46:00 80.78, 65.69 105.05 12/09/2023 09:45:43 80.78, 65.85 105.06 2.95 17
6 12/09/2023 10:36:57 -80.78,-126.79 74.92 12/09/2023 10:36:24 -80.78,-126.85 74.94 1.15 33
7 12/09/2023 11:27:57 80.79, 40.77 105.12 12/09/2023 11:27:04 80.80, 40.72 105.10 1.00 53
8 12/09/2023 12:18:55 -80.79,-152.07 74.89 12/09/2023 12:17:45 -80.79,-151.99 74.91 1.46 70
9 12/20/2023 21:06:06 80.71,-105.80 105.38 12/20/2023 21:07:18 80.71,-105.79 105.40 0.42 72
10 12/20/2023 21:57:06 -80.72, 61.79 74.59 12/20/2023 21:57:58 -80.72, 61.75 74.58 0.75 52
11 12/20/2023 22:48:03 80.73,-130.73 105.44 12/20/2023 22:48:38 80.74,-130.58 105.47 2.84 35
12 12/20/2023 23:39:04 -80.73, 36.50 74.57 12/20/2023 23:39:19 -80.73, 36.61 74.55 1.96 15
13 12/21/2023 00:30:00 80.75,-155.67 105.50 12/21/2023 00:29:59 80.75,-155.73 105.50 1.06 1
14 12/21/2023 01:21:01 -80.75, 11.56 74.50 12/21/2023 01:20:40 -80.74, 11.46 74.53 2.01 21
15 12/21/2023 02:11:58 80.76, 179.04 105.53 12/21/2023 02:11:20 80.76, 179.13 105.52 1.75 38
16 12/21/2023 03:02:58 -80.77, -13.37 74.44 12/21/2023 03:02:00 -80.78, -13.34 74.45 0.82 58



Historial Predications of SNOs between NOAA-19 and METOP-C
